Weather History for Columbia, SC

Change the Weather History Date:

Thursday, July 18, 2013

  Actual Average Record
Temperature  
Mean Temperature 81 °F 82 °F  
Max Temperature 91 °F 93 °F 105 °F (1986)
Min Temperature 70 °F 72 °F 64 °F (1987)
Degree Days  
Heating Degree Days 0 0  
Month to date heating degree days 0 0  
Since 1 June heating degree days 0 1  
Since 1 July heating degree days 0 0  
Cooling Degree Days 16 17  
Month to date cooling degree days 271 306  
Year to date cooling degree days 1025 1051  
Since 1 June cooling degree days 705 730  
Growing Degree Days 30 (Base 50)    
Moisture  
Dew Point 73 °F    
Average Humidity 76    
Maximum Humidity 100    
Minimum Humidity 52    
Precipitation  
Precipitation 0.00 in 0.18 in 2.28 in (1982)
Month to date precipitation 7.39 3.01  
Year to date precipitation 32.18 24.21  
Sea Level Pressure  
Sea Level Pressure 30.12 in    
Wind  
Wind Speed 3 mph (South)    
Max Wind Speed 8 mph    
Max Gust Speed 10 mph    
Visibility 9 miles    
Events Fog    
T = Trace of Precipitation, MM = Missing Value Source: NWS Daily Summary

Daily Weather History Graph

Daily Weather History Graph

Search for Another Location

Airport:

Trip Planner

Search our weather history database for the weather conditions in past years. The results will help you decide how hot, cold, wet, or windy it might be!

Date:

Astronomy

Jul. 18, 2013 Rise Set
Actual Time 6:26 AM EDT 8:34 PM EDT
Civil Twilight 5:58 AM EDT 9:02 PM EDT
Nautical Twilight 5:23 AM EDT 9:37 PM EDT
Astronomical Twilight 4:46 AM EDT 10:14 PM EDT
Moon 4:31 PM EDT (7/18) 2:13 AM EDT (7/18)
Length of Visible Light 15h 04m
Length of Day
14h 08m
Waxing Gibbous, 77% of the Moon is Illuminated
Jul 18
Waxing Gibbous
Jul 22
Full
Jul 29
Last Quarter
Aug 6
New
Aug 14
First Quarter

Hourly Weather History & Observations

Time (EDT) Temp. Heat Index Dew Point Humidity Pressure Visibility Wind Dir Wind Speed Gust Speed Precip Events Conditions
12:56 AM 73.0 °F - 72.0 °F 96% 30.18 in 9.0 mi West 3.5 mph - N/A   Clear
1:56 AM 72.0 °F - 71.1 °F 97% 30.16 in 6.0 mi Calm Calm - N/A   Scattered Clouds
2:56 AM 72.0 °F - 71.1 °F 97% 30.14 in 8.0 mi West 3.5 mph - N/A   Scattered Clouds
3:56 AM 71.1 °F - 70.0 °F 96% 30.13 in 7.0 mi Calm Calm - N/A   Scattered Clouds
4:56 AM 71.1 °F - 70.0 °F 96% 30.12 in 6.0 mi South 3.5 mph - N/A   Scattered Clouds
5:56 AM 71.1 °F - 71.1 °F 100% 30.13 in 7.0 mi Calm Calm - N/A   Scattered Clouds
6:56 AM 70.0 °F - 69.1 °F 97% 30.14 in 7.0 mi Calm Calm - N/A Fog Patches of Fog
7:29 AM 71.6 °F - 69.8 °F 94% 30.16 in 7.0 mi NNE 4.6 mph - N/A Fog Patches of Fog
7:56 AM 73.0 °F - 71.1 °F 93% 30.16 in 8.0 mi NNE 3.5 mph - N/A Fog Patches of Fog
8:56 AM 75.9 °F - 71.1 °F 85% 30.16 in 9.0 mi Calm Calm - N/A   Scattered Clouds
9:56 AM 79.0 °F - 73.0 °F 82% 30.15 in 9.0 mi Calm Calm - N/A   Scattered Clouds
10:56 AM 82.0 °F 88.6 °F 75.0 °F 79% 30.15 in 10.0 mi Calm Calm - N/A   Scattered Clouds
11:56 AM 84.9 °F 93.3 °F 75.0 °F 72% 30.15 in 10.0 mi South 4.6 mph - N/A   Scattered Clouds
12:56 PM 88.0 °F 95.6 °F 73.0 °F 61% 30.14 in 10.0 mi Calm Calm - N/A   Mostly Cloudy
1:56 PM 89.1 °F 98.0 °F 73.9 °F 61% 30.13 in 10.0 mi East 3.5 mph - N/A   Mostly Cloudy
2:56 PM 90.0 °F 97.9 °F 73.0 °F 57% 30.11 in 10.0 mi Variable 3.5 mph - N/A   Mostly Cloudy
3:56 PM 91.0 °F 100.4 °F 73.9 °F 57% 30.08 in 10.0 mi SSE 5.8 mph - N/A   Mostly Cloudy
4:56 PM 90.0 °F 97.9 °F 73.0 °F 57% 30.07 in 10.0 mi South 4.6 mph - N/A   Mostly Cloudy
5:56 PM 91.0 °F 98.2 °F 72.0 °F 53% 30.05 in 10.0 mi SW 3.5 mph - N/A   Mostly Cloudy
6:56 PM 89.1 °F 97.0 °F 73.0 °F 59% 30.05 in 10.0 mi SE 6.9 mph - N/A   Mostly Cloudy
7:56 PM 87.1 °F 96.3 °F 75.0 °F 67% 30.06 in 10.0 mi SSE 8.1 mph - N/A   Mostly Cloudy
8:56 PM 84.0 °F 92.6 °F 75.9 °F 76% 30.08 in 10.0 mi Calm Calm - N/A   Mostly Cloudy
9:56 PM 82.0 °F 89.4 °F 75.9 °F 82% 30.09 in 10.0 mi SSW 3.5 mph - N/A   Scattered Clouds
10:56 PM 81.0 °F 86.7 °F 75.0 °F 82% 30.11 in 10.0 mi South 4.6 mph - N/A   Mostly Cloudy
11:56 PM 80.1 °F 85.1 °F 75.0 °F 85% 30.12 in 10.0 mi SSW 3.5 mph - N/A   Mostly Cloudy